Regional Weather Roundup
Issued by NWS Sterling, VA

Home | Current Version | Previous Version | Graphics & Text | Print | Product List | Glossary On
Versions: 1 2 3 4 5 6 7 8 9 10 11 12 13 14 15 16 17 18 19 20 21 22 23 24 25 26 27
000
ASUS41 KLWX 271510
RWRLWX

REGIONAL WEATHER ROUNDUP
NATIONAL WEATHER SERVICE BALTIMORE MD/WASHINGTON DC
1100 AM EDT SAT AUG 27 2016

Note: "FAIR" indicates few or no clouds below 12,000 feet
with no significant weather and/or obstructions to visibility.
 TC=TEMPERATURE CELSIUS

 * =Non NWS site. Station does not report precipitation (e.g. rain,
    snow, etc.), thunder, or fog.

DCZ001-MDZ009-015-VAZ040>042-051-053>054-271600-
WASHINGTON METRO

CITY           SKY/WX    TMP DP  RH WIND       PRES   REMARKS
WASHINGTON NAT MOSUNNY   87  67  51 E15       30.18S HX  90
DULLES         MOSUNNY   87  65  47 E10       30.19R
ANDREWS AFB    SUNNY     85  66  52 E10       30.18R
FT BELVOIR     SUNNY     87  67  51 SE7       30.17S HX  90
QUANTICO       SUNNY     87  69  54 E7        30.18R HX  91
COLLEGE PARK*  SUNNY     82  66  57 NE3       30.18S
LEESBURG*      SUNNY     86  70  58 NE7       30.21S HX  90
MANASSAS*      SUNNY     86  68  54 E5        30.18S
GAITHERSBURG*  SUNNY     82  68  61 E7        30.23S

$$

MDZ006>007-011-014-271600-
BALTIMORE METRO

CITY           SKY/WX    TMP DP  RH WIND       PRES   REMARKS
BWI AIRPORT    MOSUNNY   85  65  51 E12       30.19R
MD SCIENCE CTR   N/A     85  63  47 MISG      30.19R
MARTIN STATE   MOSUNNY   84  72  65 E6        30.20S
ANNAPOLIS      SUNNY     83  68  60 SE8       30.18S
FORT MEADE*    SUNNY    N/A N/A N/A SE8       30.21S

$$

MDZ012-015-019>023-271600-
MARYLAND EASTERN SHORE

CITY           SKY/WX    TMP DP  RH WIND       PRES   REMARKS
OCEAN CITY     SUNNY     84  69  60 NE8       30.16R
SALISBURY      SUNNY     85  63  47 E12       30.16S
BAY BRIDGE AP* SUNNY     84  68  58 E7        30.18S
CAMBRIDGE*     SUNNY     82  64  54 NE6       30.17S
EASTON*        SUNNY     86  72  62 E6        30.21S HX  92

$$

MDZ017>025-271600-
SOUTHERN MARYLAND

CITY           SKY/WX    TMP DP  RH WIND       PRES   REMARKS
PATUXENT RIVER MOSUNNY   85  65  51 E8        30.17R
ST INIGOES     SUNNY     86  67  52 E7        30.16R
LEONARDTOWN*   SUNNY     82  64  54 E5        30.19R

$$

MDZ003>005-271600-
NORTH CENTRAL MARYLAND

CITY           SKY/WX    TMP DP  RH WIND       PRES   REMARKS
FREDERICK*     SUNNY     84  72  65 NE3       30.22F
HAGERSTOWN APT SUNNY     85  65  51 VRB3      30.20F

$$

MDZ501>502-271600-
WESTERN MARYLAND

CITY           SKY/WX    TMP DP  RH WIND       PRES   REMARKS
OAKLAND*       CLOUDY    73  64  73 SE12      30.30F
CUMBERLAND*    CLOUDY    81  66  61 SE3       30.25S

$$

VAZ025>031-271600-
SHENANDOAH VALLEY

CITY           SKY/WX    TMP DP  RH WIND       PRES   REMARKS
WINCHESTER*    SUNNY     82  66  57 E3        30.21S
FRONT ROYAL*   FAIR      81  70  69 NE3       30.20S
LURAY*         FAIR      82  68  61 CALM      30.21S
NEW MARKET*    FAIR      81  69  65 N3        30.20S
STAUNTON*      MOSUNNY   81  69  66 CALM      30.24S
WAYNESBORO*    FAIR      81  71  71 E5        30.24S

$$

WVZ021-048>050-054>055-271600-
EASTERN WEST VIRGINIA PANHANDLE

CITY           SKY/WX    TMP DP  RH WIND       PRES   REMARKS
MARTINSBURG    SUNNY     82  65  56 VRB3      30.20S
PETERSBURG*    CLOUDY    82  71  67 CALM      30.21F

$$

VAZ036>039-050-271600-
CENTRAL FOOTHILLS

CITY           SKY/WX    TMP DP  RH WIND       PRES   REMARKS
CHARLOTTESVILL SUNNY     87  69  54 NE7       30.19S HX  91
CULPEPER*      SUNNY     86  72  61 E3        30.19S HX  92
ORANGE*          N/A     86  72  62 CALM      30.20S HX  92
GORDONSVILLE*  NOT AVBL
WARRENTON*     FAIR      87  64  46 SE6       30.18S

$$

VAZ055>057-271600-
NORTH AND CENTRAL PIEDMONT

CITY           SKY/WX    TMP DP  RH WIND       PRES   REMARKS
FREDERICKSBRG* SUNNY     87  66  49 E12       30.16S HX  90
STAFFORD*      SUNNY     87  65  47 E9        30.22R

$$

NCZ024-NYZ072-PAZ021-071-VAZ022-071-271600-
OTHER REGIONAL OBSERVATIONS

CITY           SKY/WX    TMP DP  RH WIND       PRES   REMARKS
NEW YORK CITY    N/A     82  57  42 MISG        N/A
PHILADELPHIA   MOSUNNY   85  60  42 E10       30.18F
PITTSBURGH     CLOUDY    76  64  66 E6        30.20S
ROANOKE        SUNNY     85  72  65 NE5       30.22S HX  91
RICHMOND       MOSUNNY   88  69  53 E9        30.15S HX  92
RALEIGH        MOSUNNY   90  74  59 NE8       30.13S HX  99

$$

ANZ530>537-271600-
MARINE OBSERVATIONS

STATION/POSITION TIME  TEMP    WIND        PRES
                       AIR SEA DIR/SP/G
                 (UTC) (F)     (DEG/KT/KT) (MB)
THOMAS PT LIGHT  1500   81 83   90/ 10/ 11 1023.3S
BALT KEY BRIDGE  1448   81      60/  6/  8 1022.3R
COVE POINT       1448   82     100/  6/  9 1022.3R
LEWISETTA        1448   82 83  100/ 10/ 12 1021.1R
SOLOMONS ISLAND  1448   82 84   70/  7/ 10   N/A
PINEY POINT      1448          120/ 11/ 13   N/A

$$





USA.gov is the U.S. government's official web portal to all federal, state and local government web resources and services.